DateTimeUTC,F1_A11,F1_S11,BsB_S11,BsG_S11,BsR_S11,BbsB_S11,BbsG_S11,BbsR_S11,BaB_A11,BaG_A11,BaR_A11,Tu_S11,T_S11,Uu_S11,U_S11,P_S11,T1_A11
2021-10-19T01:00:00Z,00000200,21000000,,,,,,,0000.02,-000.04,0000.07,17.5,24.3,,00.0,0675.3,30.9
2021-10-19T01:01:00Z,00000200,21000000,,,,,,,0000.19,0000.59,0000.16,17.4,24.3,,00.0,0675.3,31.0
2021-10-19T01:02:00Z,00000200,21000000,,,,,,,0000.05,0000.17,0000.47,17.4,24.3,,00.0,0675.3,31.0
2021-10-19T01:03:00Z,00000200,61000000,,,,,,,0000.62,0000.41,-000.23,17.4,24.3,,00.0,0675.3,31.0
2021-10-19T01:04:00Z,00000200,41000000,-000.39,0000.39,0000.20,0000.03,0000.18,0000.15,0000.20,0000.30,0000.53,17.7,24.2,00.0,00.0,0676.2,31.0
2021-10-19T01:05:00Z,00000200,01000000,0000.77,-000.03,-000.38,0000.14,0000.22,-000.08,0000.51,0000.35,0000.03,17.8,24.2,,00.0,0676.3,31.0
2021-10-19T01:06:00Z,00000200,01000000,0000.41,0000.56,0000.02,-000.44,0000.07,-000.26,-000.15,0000.03,0000.07,17.9,24.2,,00.0,0676.3,31.0
2021-10-19T01:07:00Z,00000200,01000000,0000.76,0000.02,0000.10,0000.18,0000.38,0000.20,0000.05,-000.05,-000.07,18.0,24.2,,00.0,0676.3,31.0
2021-10-19T01:08:00Z,00000200,01000000,0000.82,0000.09,0000.07,0000.47,0000.09,0000.17,0000.03,0000.08,0000.14,18.0,24.3,,00.0,0676.2,31.0
2021-10-19T01:09:00Z,00000200,01000000,0000.95,0000.26,-000.01,0000.45,0000.05,0000.14,0000.53,0000.29,0000.23,18.0,24.3,,00.0,0676.2,31.0
2021-10-19T01:10:00Z,00000200,01000000,0000.26,0000.54,0000.39,0000.14,0000.42,0000.13,0000.04,0000.29,-000.09,17.9,24.2,,00.0,0676.2,31.0
2021-10-19T01:11:00Z,00000200,01000000,0001.25,0000.70,-000.07,0000.47,-000.08,-000.09,-000.36,-000.21,0000.17,17.8,24.2,,00.0,0676.2,31.0
2021-10-19T01:12:00Z,00000200,01000000,0000.38,0000.09,0000.15,-000.20,0000.34,0000.07,0000.35,0000.27,0000.05,17.8,24.1,,00.0,0676.2,31.0
2021-10-19T01:13:00Z,00000200,01000000,0000.27,0000.20,0000.16,0000.17,0000.19,-000.04,-000.12,-000.15,0000.02,17.7,24.1,,00.0,0676.2,31.0
2021-10-19T01:14:00Z,00000200,01000000,0000.81,-000.03,-000.09,0000.31,0000.24,0000.08,0000.23,-000.03,-000.06,17.7,24.1,,00.0,0676.2,31.0
2021-10-19T01:15:00Z,00000200,01000000,0000.85,0000.12,-000.15,0000.17,0000.51,-000.08,-000.26,-000.20,0000.32,17.6,24.1,,00.0,0676.2,30.9
2021-10-19T01:16:00Z,00000200,01000000,0000.29,0000.53,0000.45,-000.23,0000.01,0000.09,-000.04,0000.05,-000.08,17.6,24.0,,00.0,0676.2,31.0
2021-10-19T01:17:00Z,00000200,01000000,0000.02,0000.42,0000.18,0000.04,0000.17,0000.01,0000.56,0000.42,-000.03,17.6,24.0,,00.0,0676.2,31.0
2021-10-19T01:18:00Z,00000200,01000000,0000.39,0000.68,0000.26,0000.59,0000.14,0000.07,0000.36,0000.19,0000.30,17.7,24.0,,00.0,0676.2,31.0
2021-10-19T01:19:00Z,00000200,01000000,0000.79,0000.53,0000.24,0000.41,-000.00,-000.34,-000.09,0000.42,0000.37,17.8,24.1,,00.0,0676.2,31.0
2021-10-19T01:20:00Z,00000200,01000000,-000.42,0000.46,0000.33,0000.24,-000.04,0000.28,0000.52,0000.34,-000.00,17.9,24.1,,00.0,0676.2,31.0
2021-10-19T01:21:00Z,00000200,01000000,0001.06,0000.32,0000.25,-000.03,-000.31,0000.18,0000.01,-000.07,-000.06,17.9,24.2,,00.0,0676.2,31.0
2021-10-19T01:22:00Z,00000200,01000000,-000.01,0000.38,0000.24,-000.01,0000.08,0000.00,-000.19,-000.37,0000.01,17.9,24.2,,00.0,0676.2,31.0
2021-10-19T01:23:00Z,00000200,01000000,-000.24,0000.59,0000.22,0000.35,0000.22,-000.20,0000.23,0000.18,0000.09,17.9,24.2,,00.0,0676.2,31.0
2021-10-19T01:24:00Z,00000200,01000000,0001.04,0000.17,0000.15,-000.30,0000.05,0000.22,0000.28,0000.54,0000.64,17.9,24.2,,00.0,0676.2,31.0
2021-10-19T01:25:00Z,00000200,01000000,0000.85,0000.80,0000.28,-000.07,0000.54,0000.05,-000.06,-000.33,-000.30,17.8,24.1,,00.0,0676.2,31.0
2021-10-19T01:26:00Z,00000200,01000000,0001.60,0000.56,0000.09,0000.40,0000.06,-000.30,0000.48,0000.48,0000.05,17.8,24.1,,00.0,0676.2,30.9
2021-10-19T01:27:00Z,00000200,01000000,0000.81,0000.81,0000.28,0000.32,0000.32,-000.11,-000.30,-000.29,-000.29,17.7,24.1,,00.0,0676.2,30.9
2021-10-19T01:28:00Z,00000200,01000000,0001.07,0000.77,0000.00,0000.10,0000.10,0000.03,0000.49,0000.40,0000.54,17.6,24.0,,00.0,0676.2,31.0
2021-10-19T01:29:00Z,00000200,01000000,0001.02,0000.63,0000.25,0000.09,0000.38,0000.28,-000.04,-000.13,-000.22,17.6,24.0,,00.0,0676.2,30.9
2021-10-19T01:30:00Z,00000200,01000000,0001.06,0000.48,0000.84,0000.16,-000.01,-000.09,-000.08,0000.23,-000.06,17.5,24.0,,00.0,0676.2,30.9
2021-10-19T01:31:00Z,00000200,01000000,0000.59,0000.45,0000.34,0000.05,0000.19,-000.30,0000.63,0000.27,0000.36,17.5,24.0,,00.0,0676.2,30.9
2021-10-19T01:32:00Z,00000200,01000000,0001.38,0000.74,0000.41,0000.27,-000.06,0000.05,0000.31,0000.37,0000.23,17.5,23.9,,00.0,0676.2,31.0
2021-10-19T01:33:00Z,00000200,01000000,0001.39,0000.70,0000.34,-000.23,0000.28,0000.25,0000.68,0000.58,0000.86,17.6,24.0,,00.0,0676.1,31.0
2021-10-19T01:34:00Z,00000200,01000000,0000.55,0000.67,0000.90,-000.10,0000.20,0000.09,0000.54,0000.62,-000.30,17.7,24.0,,00.0,0676.2,31.0
2021-10-19T01:35:00Z,00000200,01000000,0001.16,0001.24,0000.58,0000.43,0000.04,-000.18,0000.40,0000.46,0000.74,17.8,24.0,,00.0,0676.2,31.0
2021-10-19T01:36:00Z,00000200,01000000,0001.56,0001.08,0000.49,0000.06,0000.22,0000.20,0000.47,0000.49,0000.20,17.9,24.1,00.0,00.0,0676.2,31.0
2021-10-19T01:37:00Z,00000200,01000000,0002.25,0000.86,0000.68,0000.85,0000.27,0000.34,0000.47,0000.33,0000.52,17.9,24.1,,00.0,0676.2,31.0
2021-10-19T01:38:00Z,00000200,01000000,0000.88,0000.97,0000.27,-000.47,-000.10,-000.21,0000.14,0000.02,-000.10,18.0,24.2,,00.0,0676.2,31.0
2021-10-19T01:39:00Z,00000200,01000000,0001.59,0001.11,0000.43,0000.42,0000.47,-000.09,0000.32,0000.09,0000.03,17.9,24.2,,00.0,0676.2,31.0
2021-10-19T01:40:00Z,00000200,01000000,0000.93,0001.00,0000.68,-000.06,0000.31,0000.01,0000.20,0000.63,0000.14,17.9,24.2,,00.0,0676.2,31.0
2021-10-19T01:41:00Z,00000200,01000000,0001.82,0000.83,0000.55,0000.57,0000.05,0000.08,0000.33,0000.05,0000.06,17.9,24.1,,00.0,0676.2,31.0
2021-10-19T01:42:00Z,00000200,01000000,0002.46,0001.40,0000.53,0000.29,0000.15,-000.12,0000.10,-000.24,0000.48,17.8,24.1,,00.0,0676.2,31.0
2021-10-19T01:43:00Z,00000200,01000000,0001.32,0000.93,0000.21,0000.55,-000.03,-000.11,-000.01,0000.55,-000.06,17.7,24.1,,00.0,0676.2,31.0
2021-10-19T01:44:00Z,00000200,01000000,0000.92,0001.04,0000.25,-000.10,0000.19,0000.10,0000.09,0000.13,-000.17,17.7,24.0,,00.0,0676.2,30.9
2021-10-19T01:45:00Z,00000200,01000000,0001.26,0000.79,0000.28,0000.15,0000.21,-000.19,0000.38,-000.18,0000.28,17.6,24.0,,00.0,0676.2,30.9
2021-10-19T01:46:00Z,00000200,01000000,0001.11,0000.94,0000.39,-000.16,0000.28,0000.10,0000.39,0000.49,0000.42,17.6,24.0,,00.0,0676.2,31.0
2021-10-19T01:47:00Z,00000200,01000000,0001.39,0000.79,0000.35,-000.14,-000.36,-000.08,0000.37,0000.26,0000.11,17.6,24.0,,00.0,0676.2,31.0
2021-10-19T01:48:00Z,00000200,01000000,0001.43,0000.58,0000.18,0000.39,0000.20,0000.07,0000.44,0000.24,0000.22,17.7,24.0,,00.0,0676.2,31.0
2021-10-19T01:49:00Z,00000200,01000000,0001.03,0000.65,0000.47,0000.54,0000.33,-000.01,0000.10,0000.47,0000.26,17.8,24.0,,00.0,0676.2,31.0
2021-10-19T01:50:00Z,00000200,01000000,0000.63,0000.40,-000.08,0000.45,0000.12,-000.44,0000.13,-000.01,0000.14,17.9,24.1,,00.0,0676.2,31.0
2021-10-19T01:51:00Z,00000200,01000000,0000.43,0000.31,0000.22,0000.57,-000.13,-000.02,0000.27,0000.44,0000.13,17.9,24.1,,00.0,0676.2,31.0
2021-10-19T01:52:00Z,00000200,01000000,0000.58,0000.50,0000.06,0000.26,0000.07,-000.17,-000.31,-000.34,-000.05,18.0,24.2,,00.0,0676.3,31.0
2021-10-19T01:53:00Z,00000200,01000000,0000.64,0000.12,-000.02,0000.15,0000.12,-000.11,0000.02,-000.07,0000.04,18.0,24.2,,00.0,0676.3,31.0
2021-10-19T01:54:00Z,00000200,01000000,0000.87,0000.39,0000.09,0000.20,0000.05,0000.22,0000.40,0000.39,0000.12,17.9,24.2,,00.0,0676.3,31.0
2021-10-19T01:55:00Z,00000200,01000000,0000.76,0000.23,0000.28,0000.41,0000.01,-000.22,-000.37,-000.10,-000.40,17.9,24.2,,00.0,0676.3,31.0
2021-10-19T01:56:00Z,00000200,01000000,0000.95,0000.77,-000.19,0000.65,0000.20,-000.48,0000.38,0000.28,0000.12,17.8,24.1,,00.0,0676.3,31.0
2021-10-19T01:57:00Z,00000200,41000000,,,,,,,0000.55,0000.46,0000.28,17.8,24.0,,00.0,0676.3,31.0
2021-10-19T01:58:00Z,00000200,61000000,,,,,,,-000.22,-000.51,-000.13,17.4,24.2,,00.0,0675.3,30.9
2021-10-19T01:59:00Z,00000200,21000000,,,,,,,-000.35,-000.10,-000.10,17.4,24.3,,00.0,0675.3,30.9
